Islip, NY

3:36 PM EST on December 05, 2019 (GMT -0500)
Long Island Mac Arthur

Weather History for KISP - November, 2019

Change the Weather History Date:

Tuesday, November 12, 2019

  Actual Average Record
Temperature  
Mean Temperature 42 °F 46 °F  
Max Temperature 58 °F 55 °F 67 °F (2014)
Min Temperature 26 °F 38 °F 25 °F (2001)
Degree Days  
Heating Degree Days 23 19  
Month to date heating degree days 249 206  
Since 1 July heating degree days 503 626  
Cooling Degree Days 0 0  
Month to date cooling degree days 0 0  
Year to date cooling degree days 985 787  
Moisture  
Dew Point 34 °F    
Average Humidity 76    
Maximum Humidity 96    
Minimum Humidity 35    
Precipitation  
Precipitation 0.19 in 0.11 in 1.74 in (1975)
Month to date precipitation 0.60 1.38  
Year to date precipitation 39.51 39.89  
Snow  
Snow 0.10 in 0.10 in 0.90 in (1987)
Month to date snowfall 0.1 0.1  
Since 1 July snowfall 0.1 0.1  
Snow Depth 0.00 in    
Sea Level Pressure  
Sea Level Pressure 29.87 in    
Wind  
Wind Speed 12 mph ()    
Max Wind Speed 26 mph    
Max Gust Speed 33 mph    
Visibility 8.3 miles    
Events Rain , Snow    
T = Trace of Precipitation, MM = Missing Value Source: Averaged Metar Reports

Daily Weather History Graph

Daily Weather History Graph

Search for Another Location

Airport or City:

Astronomy

Nov. 12, 2019 Rise Set
Actual Time 6:35 AM EST 4:37 PM EST
Civil Twilight 6:06 AM EST 5:06 PM EST
Nautical Twilight 5:33 AM EST 5:39 PM EST
Astronomical Twilight 5:01 AM EST 6:11 PM EST
Moon 5:02 PM EST (11/12) 6:23 AM EST (11/12)
Length of Visible Light 10h 59m
Length of Day
10h 01m
Full, 100% of the Moon is Illuminated
Nov 12
Full
Nov 19
Last Quarter
Nov 26
New
Dec 4
First Quarter
Dec 12
Full

Hourly Weather History & Observations

Time (EST) Temp. Windchill Dew Point Humidity Pressure Visibility Wind Dir Wind Speed Gust Speed Precip Events Conditions
12:56 AM 57.0 °F - 52.0 °F 83% 29.79 in 10.0 mi SSW 13.8 mph 21.9 mph N/A   Clear
1:56 AM 57.0 °F - 50.0 °F 77% 29.77 in 10.0 mi SSW 10.4 mph - N/A   Clear
2:56 AM 57.0 °F - 51.1 °F 81% 29.74 in 10.0 mi SSW 10.4 mph - N/A   Clear
3:56 AM 57.0 °F - 50.0 °F 77% 29.72 in 10.0 mi SW 12.7 mph - N/A   Clear
4:56 AM 57.0 °F - 50.0 °F 77% 29.71 in 10.0 mi SSW 15.0 mph - N/A   Clear
5:56 AM 57.0 °F - 48.9 °F 74% 29.71 in 10.0 mi SW 15.0 mph - N/A   Overcast
6:56 AM 55.0 °F - 46.9 °F 74% 29.70 in 10.0 mi WSW 9.2 mph - N/A   Overcast
7:56 AM 55.9 °F - 46.9 °F 72% 29.72 in 10.0 mi SW 9.2 mph - 0.00 in   Overcast
8:56 AM 53.1 °F - 46.9 °F 80% 29.74 in 10.0 mi West 12.7 mph 21.9 mph 0.01 in Rain Light Rain
9:11 AM 48.0 °F - 45.0 °F 89% 29.76 in 8.0 mi NNW 19.6 mph 27.6 mph 0.00 in Rain Light Rain
9:56 AM 43.0 °F 35.4 °F 39.9 °F 89% 29.77 in 5.0 mi WNW 16.1 mph - 0.01 in Rain Light Rain
10:36 AM 42.1 °F 36.1 °F 39.9 °F 92% 29.78 in 7.0 mi WNW 10.4 mph - 0.01 in Rain Light Rain
10:56 AM 42.1 °F 35.7 °F 39.9 °F 92% 29.79 in 10.0 mi WNW 11.5 mph - 0.02 in Rain Light Rain
11:19 AM 42.1 °F 34.2 °F 39.9 °F 92% 29.81 in 7.0 mi WNW 16.1 mph - 0.00 in Rain Light Rain
11:56 AM 39.9 °F 31.8 °F 37.9 °F 93% 29.83 in 6.0 mi NW 15.0 mph 24.2 mph 0.03 in Rain Light Rain
12:56 PM 37.9 °F 28.5 °F 36.0 °F 93% 29.85 in 5.0 mi NW 17.3 mph 23.0 mph 0.03 in Rain Light Rain
1:28 PM 36.0 °F 26.0 °F 34.0 °F 93% 29.86 in 4.0 mi NW 17.3 mph 25.3 mph 0.02 in Rain , Snow Light Rain
1:53 PM 35.6 °F 28.6 °F 33.8 °F 93% 29.87 in 3.0 mi NW 9.2 mph - 0.04 in Rain , Snow Light Rain
1:56 PM 35.1 °F 25.9 °F 34.0 °F 96% 29.87 in 3.0 mi NW 13.8 mph - 0.05 in Rain , Snow Light Rain
2:56 PM 33.1 °F 25.5 °F 32.0 °F 96% 29.90 in 0.8 mi NW 9.2 mph - 0.02 in Snow Light Snow
3:56 PM 34.0 °F 26.0 °F 30.9 °F 89% 29.92 in 10.0 mi NW 10.4 mph - 0.02 in   Overcast
4:39 PM 33.1 °F 23.9 °F 27.0 °F 78% 29.95 in 10.0 mi NNW 12.7 mph - N/A   Overcast
4:56 PM 33.1 °F 23.9 °F 24.1 °F 70% 29.96 in 10.0 mi NNW 12.7 mph - N/A   Overcast
5:56 PM 32.0 °F 20.8 °F 21.0 °F 64% 30.00 in 10.0 mi NW 17.3 mph 25.3 mph N/A   Overcast
6:56 PM 32.0 °F 19.5 °F 15.1 °F 50% 30.03 in 10.0 mi NNW 21.9 mph 31.1 mph N/A   Overcast
7:56 PM 30.9 °F 20.2 °F 14.0 °F 50% 30.05 in 10.0 mi NW 15.0 mph 27.6 mph N/A   Mostly Cloudy
8:56 PM 28.9 °F 17.3 °F 10.9 °F 47% 30.08 in 10.0 mi NW 16.1 mph - N/A   Scattered Clouds
9:56 PM 28.0 °F 15.7 °F 5.0 °F 38% 30.10 in 10.0 mi NW 17.3 mph 25.3 mph N/A   Scattered Clouds
10:56 PM 27.0 °F 12.5 °F 6.1 °F 41% 30.11 in 10.0 mi NW 23.0 mph 32.2 mph N/A   Partly Cloudy
11:56 PM 26.1 °F 12.3 °F 6.1 °F 43% 30.12 in 10.0 mi NW 19.6 mph 29.9 mph N/A   Partly Cloudy